Location: Monfort
(47.1967°N, 0.2115°W)
Time: 10:12:19
(UTC+00:00)

CZ-4B R/B - Pass Details

Date: 24 October 2020
Orbit: 388 x 462 km, 97.6° (Epoch: 27 November)

Event Time Altitude Azimuth Distance (km) Brightness Sun altitude
Rises 17:32:36 0° 15° (NNE) 2,426 4.9 -6.8°
Reaches altitude 10° 17:34:40 10° 19° (NNE) 1,538 3.8 -7.1°
Maximum altitude 17:37:56 65° 102° (ESE) 468 1.2 -7.7°
Drops below altitude 10° 17:41:05 10° 185° (S) 1,482 4.2 -8.2°
Sets 17:43:03 0° 188° (S) 2,325 5.3 -8.5°
